Tracking 35274 objects as of 10-Sep-2026
HD Live streaming from Space Station
objects crossing your sky now

STARLINK-6332

Track STARLINK-6332 now!
10-day predictions
STARLINK-6332 is classified as:


NORAD ID: 57339
Int'l Code: 2023-099M
Launch date: July 16, 2023
Source: United States (US)
Launch site: AIR FORCE EASTERN TEST RANGE (AFETR)
Your satellite tracking list
Your tracking list is empty




NASA's NSSDC Master Catalog

Two Line Element Set (TLE):
1 57339U 23099M   26251.17423403 -.00000207  00000-0  19954-5 0  9993
2 57339  43.0020 301.9479 0001034 275.1224  84.9509 15.27576506173989
Source of the keplerian elements: AFSPC